#timestamp,LO_Frequency,Hit,StdDev 
1632355215.7,286047000.2,N
1632355235.5,286047000.6,N
1632355255.4,286047001.0,N
1632355275.2,286046998.1,N
1632355295.1,286047000.9,N
1632355296.0,286047000.9,N
1632355315.8,286047002.3,N
1632355335.6,286047002.7,N
1632355355.5,286047002.2,N
1632355375.3,286047001.8,N
1632355395.2,286047003.9,N
1632355415.9,286047004.2,N
1632355435.7,286047003.6,N
1632355455.6,286047003.1,N
1632355475.4,286047003.1,N
1632355495.2,286047003.5,N
1632355515.1,286047003.3,N
1632355516.0,286047003.3,N
1632355535.8,286047004.8,Y
1632355555.7,286047004.0,P
1632355575.5,286047001.3,N
1632355595.3,286047001.9,N
1632355615.2,286047000.9,N
1632355635.0,286047002.3,N
1632355635.9,286047002.3,N
1632355655.8,286047000.2,N
1632355675.6,286047000.0,N
1632355695.4,286047000.9,N
1632355715.3,286047000.4,N
1632355735.1,286047000.8,N
1632355755.8,286046999.8,N
1632355775.7,286047002.6,N
1632355795.5,286046999.7,N
1632355815.4,286047001.7,N
1632355835.2,286047003.3,N
1632355855.0,286047004.4,Y
1632355855.9,286047004.4,P
1632355875.8,286047000.0,N
1632355895.6,286046999.8,N
1632355915.5,286046999.8,N
1632355935.3,286047001.2,N
1632355955.1,286047001.1,N
1632355975.9,286047000.9,N
1632355995.7,286047000.8,N
1632356015.5,286047001.2,N
1632356035.4,286047002.3,N
1632356055.2,286047000.2,N
1632356075.1,286047000.0,N
1632356076.0,286047000.0,N
1632356095.8,286047000.4,N
1632356115.6,286046999.8,N
1632356135.5,286047000.7,N
1632356155.3,286047000.4,N
1632356175.2,286047000.4,N
1632356195.9,286047000.7,N
1632356215.7,286046998.7,N
1632356235.6,286046998.8,N
1632356255.4,286046998.7,N
1632356275.2,286046997.0,N
1632356295.1,286046999.3,N
1632356296.0,286046999.3,N
1632356315.8,286046999.2,N
1632356335.7,286046997.6,N
1632356355.5,286046996.7,N
1632356375.3,286046997.0,N
1632356395.2,286046999.4,N
1632356415.0,286046999.0,N
1632356415.9,286046999.0,N
1632356435.8,286046998.2,N
1632356455.6,286046999.4,N
1632356475.4,286046996.5,N
1632356495.3,286047000.9,N
1632356515.1,286047000.5,N
1632356535.8,286047000.7,N
1632356555.7,286047001.1,N
1632356575.5,286046998.7,N
1632356595.4,286046999.5,N
1632356615.2,286046999.2,N
1632356635.0,286046999.1,N
1632356635.9,286046999.1,N
1632356655.8,286046999.4,N
1632356675.6,286046998.3,N
1632356695.4,286046999.5,N
1632356715.3,286046996.5,N
1632356735.1,286046996.5,N
1632356755.9,286046996.6,N
1632356775.7,286046996.9,N
1632356795.5,286046997.0,N
1632356815.4,286046996.7,N
1632356835.2,286046997.3,N
1632356855.1,286046997.3,N
1632356856.0,286046997.3,N
1632356875.8,286046998.0,N
1632356895.6,286046997.5,N
1632356915.5,286046996.6,N
1632356935.3,286046999.2,N
1632356955.1,286046998.9,N
1632356975.9,286046999.6,N
1632356995.7,286046998.2,N
1632357015.6,286046999.3,N
1632357035.4,286046999.4,N
1632357055.2,286046999.6,N
1632357075.1,286046999.0,N
1632357076.0,286046999.0,N
1632357095.8,286046998.4,N
1632357115.6,286047000.8,N
1632357135.5,286046998.2,N
1632357155.3,286046998.9,N
1632357175.2,286046999.0,N
1632357195.9,286046999.3,N
1632357215.7,286046999.4,N
1632357235.6,286046998.3,N
1632357255.4,286046999.2,N
1632357275.3,286046996.5,Y
1632357295.1,286047001.1,P
1632357296.0,286047001.1,N
1632357315.8,286047001.0,N
1632357335.7,286047000.3,N
1632357355.5,286047001.2,N
1632357375.3,286047000.9,N
1632357395.2,286046998.3,N
1632357415.0,286047001.0,N
1632357415.9,286047001.0,N
1632357435.8,286046999.8,N
1632357455.6,286047001.1,N
1632357475.5,286046999.4,N
1632357495.3,286046998.1,N
1632357515.1,286046996.5,Y
1632357535.9,286046998.4,P
1632357555.7,286046998.5,N
1632357575.6,286046998.3,N
1632357595.4,286046999.2,N
1632357615.2,286046996.5,Y
1632357635.1,286047000.2,P
1632357636.0,286047000.2,N
1632357655.8,286046999.8,N
1632357675.7,286047000.7,N
1632357695.5,286047000.7,N
1632357715.3,286047000.4,N
1632357735.2,286047001.0,N
1632357755.0,286046998.9,N
1632357755.9,286046998.9,N
1632357775.8,286046999.2,N
1632357795.6,286046999.5,N
1632357815.4,286046998.1,N
1632357835.3,286046998.7,N
1632357855.1,286047001.2,N
1632357875.8,286046998.7,N
1632357895.7,286046999.2,N
1632357915.5,286046996.6,Y
1632357935.4,286046996.6,P
1632357955.2,286046997.7,N
1632357975.0,286046996.7,N
1632357975.9,286046996.7,N
1632357995.8,286046997.0,N
1632358015.6,286046996.9,N
1632358035.4,286046997.3,N
1632358055.3,286046997.5,N
1632358075.1,286046997.7,N
1632358095.9,286046997.6,N
1632358115.7,286046996.7,Y
1632358135.5,286046998.3,P
1632358155.4,286046998.5,P
1632358175.2,286047001.2,N
1632358195.0,286047000.8,N
1632358196.0,286047000.8,N
1632358215.8,286047000.5,N
1632358235.6,286047000.7,N
1632358255.5,286047000.3,N
1632358275.3,286047000.5,N
1632358295.1,286047001.0,N
1632358315.9,286047002.4,N
1632358335.7,286047002.0,N
1632358355.6,286047001.5,N
1632358375.4,286047002.2,N
1632358395.2,286047000.4,N
1632358415.1,286047002.3,N
1632358416.0,286047002.3,N
1632358435.8,286047002.2,N
1632358455.7,286047002.1,N
1632358475.5,286047001.5,N
1632358495.3,286047001.6,N
1632358515.2,286047002.5,N
1632358535.0,286047000.9,N
1632358535.9,286047000.9,N
1632358555.8,286047000.4,N
1632358575.6,286047000.6,N
1632358595.4,286046999.7,N
1632358615.3,286047001.8,N
1632358635.1,286047004.3,Y
1632358655.8,286047001.7,P
1632358675.7,286047004.1,P
1632358695.5,286047003.9,N
1632358715.4,286047004.3,Y
1632358735.2,286047001.2,P
1632358755.0,286046999.0,N
1632358755.9,286046999.0,N
1632358775.8,286046999.0,N
1632358795.6,286046999.2,N
